#�ϑ�����,���ϕ���,���ϕ���,�ő啗��,�ő啗����������,�ő�u�ԕ���,�ő�u�ԕ�����������
#(�N����),(m/s)   ,(16����),(m/s)   ,(16����)        ,(m/s)       ,(16����)            
2013/1/15 0:01,4.6,15,4.7,16,5.7,16
2013/1/15 0:02,4.6,15,4.6,16,9.9,15
2013/1/15 0:03,4.6,15,4.7,16,10.2,1
2013/1/15 0:04,4.6,15,4.7,16,9.2,2
2013/1/15 0:05,4.8,15,4.8,16,10.9,16
2013/1/15 0:06,4.8,15,4.9,16,8.1,16
2013/1/15 0:07,4.7,15,4.8,16,7.4,15
2013/1/15 0:08,4.9,16,4.9,16,7.2,16
2013/1/15 0:09,5,16,5,16,9.4,9
2013/1/15 0:10,4.9,16,5,16,8.7,3
2013/1/15 0:11,5,16,5,16,7.9,16
2013/1/15 0:12,5.5,16,5.5,16,13.9,16
2013/1/15 0:13,5.5,16,5.5,16,14.2,15
2013/1/15 0:14,5.5,16,5.5,16,13.5,14
2013/1/15 0:15,5.5,16,5.5,16,15.8,15
2013/1/15 0:16,5.6,16,5.6,16,16.9,15
2013/1/15 0:17,5.9,16,5.9,16,11.5,16
2013/1/15 0:18,5.8,16,5.9,16,8.6,16
2013/1/15 0:19,6.1,16,6.2,16,15,15
2013/1/15 0:20,6.3,16,6.4,16,11.1,1
2013/1/15 0:21,6.6,16,6.6,16,12.5,1
2013/1/15 0:22,6.5,16,6.6,16,16.5,15
2013/1/15 0:23,6.5,16,6.7,16,12.8,15
2013/1/15 0:24,6.7,16,6.7,16,11.8,14
2013/1/15 0:25,6.5,16,6.7,16,8.2,15
2013/1/15 0:26,6.4,16,6.4,16,10.9,1
2013/1/15 0:27,6.2,16,6.3,16,10.5,2
2013/1/15 0:28,6.2,16,6.2,16,9.9,2
2013/1/15 0:29,6.2,16,6.2,16,14,16
2013/1/15 0:30,6.4,16,6.4,16,12.6,15
2013/1/15 0:31,6.3,16,6.4,16,11.8,1
2013/1/15 0:32,5.9,16,6.3,16,11.5,1
2013/1/15 0:33,5.7,16,5.8,16,7.2,2
2013/1/15 0:34,5.1,16,5.6,16,3.3,15
2013/1/15 0:35,4.9,1,5,16,3.1,5
2013/1/15 0:36,4.7,1,4.9,16,9.2,16
2013/1/15 0:37,4.7,1,4.7,16,9,14
2013/1/15 0:38,4.7,16,4.7,16,8.1,1
2013/1/15 0:39,4.1,1,4.7,16,6,16
2013/1/15 0:40,3.6,16,4.1,16,8.4,1
2013/1/15 0:41,3.2,1,3.6,16,7,16
2013/1/15 0:42,3.4,16,3.4,16,8.7,15
2013/1/15 0:43,3.3,16,3.5,16,6.4,13
2013/1/15 0:44,3.3,15,3.3,16,3.3,10
2013/1/15 0:45,3.4,15,3.4,1,5,16
2013/1/15 0:46,3.6,15,3.7,1,8.1,1
2013/1/15 0:47,3.5,14,3.6,1,9,14
2013/1/15 0:48,3.5,14,3.6,16,7.9,11
2013/1/15 0:49,3.7,14,3.7,1,8.1,16
2013/1/15 0:50,3.8,13,3.8,13,8.2,12
2013/1/15 0:51,3.8,13,3.8,13,5.2,16
2013/1/15 0:52,3.6,13,3.9,13,6.7,4
2013/1/15 0:53,3.6,14,3.6,13,9.7,14
2013/1/15 0:54,3.6,14,3.6,13,3.2,12
2013/1/15 0:55,3.6,14,3.7,13,3.9,8
2013/1/15 0:56,3.5,14,3.5,13,6.4,16
2013/1/15 0:57,3.3,16,3.6,13,4.7,1
2013/1/15 0:58,3.1,16,3.3,13,3.8,16
2013/1/15 0:59,3,16,3.1,13,5.8,16
2013/1/15 1:00,2.7,16,2.9,13,4.9,16
2013/1/15 1:01,2.8,16,2.8,13,6.3,1
2013/1/15 1:02,2.9,16,2.9,14,8.9,1
2013/1/15 1:03,3.1,16,3.1,14,11.5,1
2013/1/15 1:04,3.2,16,3.2,14,6.3,16
2013/1/15 1:05,3.3,16,3.3,15,9,16
2013/1/15 1:06,3.2,16,3.4,15,7.9,16
2013/1/15 1:07,3.3,15,3.3,16,5.2,15
2013/1/15 1:08,3.4,15,3.4,16,5.5,15
2013/1/15 1:09,3.3,15,3.4,16,3.8,15
2013/1/15 1:10,3.2,16,3.3,16,3.5,1
2013/1/15 1:11,3.1,16,3.2,16,4.1,8
2013/1/15 1:12,2.8,15,3.1,16,4.2,8
2013/1/15 1:13,2.4,15,2.8,16,2.4,10
2013/1/15 1:14,2.3,15,2.4,16,4.1,16
2013/1/15 1:15,2.2,16,2.4,16,7.9,2
2013/1/15 1:16,2.5,16,2.5,15,10.2,3
2013/1/15 1:17,2.8,16,2.8,15,10.6,15
2013/1/15 1:18,2.8,1,2.8,15,6,16
2013/1/15 1:19,3,2,3,15,8.1,1
2013/1/15 1:20,3.2,1,3.2,16,8.4,1
2013/1/15 1:21,3.2,1,3.2,2,4.7,3
2013/1/15 1:22,3.5,1,3.5,1,7.4,15
2013/1/15 1:23,4.4,1,4.4,1,16.5,1
2013/1/15 1:24,5,1,5,1,13.8,15
2013/1/15 1:25,5,1,5.1,1,9.8,16
2013/1/15 1:26,4.5,16,5,1,1.5,11
2013/1/15 1:27,4.1,16,4.5,1,4.4,15
2013/1/15 1:28,3.9,16,4.1,1,3.2,15
2013/1/15 1:29,3.5,16,3.9,1,1.4,7
2013/1/15 1:30,3.4,16,3.5,1,2.5,4
2013/1/15 1:31,3.3,16,3.4,1,2.2,1
2013/1/15 1:32,3,15,3.3,1,3.7,9
2013/1/15 1:33,2.3,14,2.9,1,3,10
2013/1/15 1:34,1.6,11,2.2,1,4.3,8
2013/1/15 1:35,1.6,10,1.6,1,6.4,9
2013/1/15 1:36,1.7,9,1.7,16,4.5,8
2013/1/15 1:37,1.7,9,1.7,16,2.6,11
2013/1/15 1:38,1.6,9,1.7,16,2.1,13
2013/1/15 1:39,1.7,9,1.7,16,3,6
2013/1/15 1:40,1.6,9,1.7,16,2.2,4
2013/1/15 1:41,1.7,9,1.7,16,3.5,1
2013/1/15 1:42,1.6,8,1.7,15,2.5,1
2013/1/15 1:43,1.6,7,1.6,14,4.1,8
2013/1/15 1:44,1.5,6,1.5,10,3.3,7
2013/1/15 1:45,1.4,2,1.5,10,4.5,15
2013/1/15 1:46,1.4,15,1.4,9,3.3,13
2013/1/15 1:47,1.3,1,1.4,9,3,10
2013/1/15 1:48,1.3,2,1.3,9,0.9,4
2013/1/15 1:49,1.3,1,1.3,9,2.2,1
2013/1/15 1:50,1.4,1,1.4,9,3.9,4
2013/1/15 1:51,1.4,16,1.5,9,4.3,10
2013/1/15 1:52,1.5,13,1.5,8,4.4,16
2013/1/15 1:53,1.6,14,1.6,13,4.5,16
2013/1/15 1:54,1.6,14,1.6,13,2.2,13
2013/1/15 1:55,1.4,14,1.5,13,1.4,12
2013/1/15 1:56,1.3,14,1.4,13,1.8,8
2013/1/15 1:57,1.2,12,1.3,13,2.1,7
2013/1/15 1:58,1.2,11,1.2,13,2.4,3
2013/1/15 1:59,1.4,10,1.4,13,3.3,4
2013/1/15 2:00,1.5,9,1.5,13,4.4,4
2013/1/15 2:01,1.4,2,1.5,13,4.8,14
2013/1/15 2:02,1.5,2,1.5,13,4.1,14
2013/1/15 2:03,1.5,6,1.5,14,3.7,8
2013/1/15 2:04,1.5,5,1.5,14,3.2,14
2013/1/15 2:05,1.6,6,1.6,5,3.7,7
2013/1/15 2:06,1.9,7,1.9,7,5.7,9
2013/1/15 2:07,2.1,8,2.1,8,4.5,10
2013/1/15 2:08,2.2,11,2.2,10,3,16
2013/1/15 2:09,2,12,2.2,10,3.1,15
2013/1/15 2:10,1.8,12,2,10,0.5,15
2013/1/15 2:11,1.7,11,1.8,10,1.1,7
2013/1/15 2:12,1.5,11,1.7,10,0.6,8
2013/1/15 2:13,1.4,10,1.5,10,3.5,9
2013/1/15 2:14,1.5,10,1.5,10,4.4,12
2013/1/15 2:15,1.4,10,1.5,10,2.7,8
2013/1/15 2:16,1.2,10,1.4,10,1.5,13
2013/1/15 2:17,1.1,10,1.2,10,3.2,11
2013/1/15 2:18,1.2,10,1.2,11,2.7,11
2013/1/15 2:19,1.2,10,1.2,12,2.4,10
2013/1/15 2:20,1.4,10,1.4,12,3.3,9
2013/1/15 2:21,1.5,10,1.5,11,3.2,9
2013/1/15 2:22,1.5,10,1.5,11,1.3,10
2013/1/15 2:23,1.5,10,1.5,11,1.6,9
2013/1/15 2:24,1.3,10,1.5,10,2.2,4
2013/1/15 2:25,1.4,10,1.4,10,2.9,6
2013/1/15 2:26,1.5,10,1.5,10,2.9,10
2013/1/15 2:27,1.4,10,1.5,10,2.4,11
2013/1/15 2:28,1.2,10,1.4,10,1.5,8
2013/1/15 2:29,1.1,9,1.2,10,0.3,2
2013/1/15 2:30,1,10,1.1,10,1.5,16
2013/1/15 2:31,1,10,1,10,2.5,8
2013/1/15 2:32,1.1,9,1.1,10,4.5,8
2013/1/15 2:33,1.2,8,1.2,10,2.5,8
2013/1/15 2:34,1.2,9,1.2,10,2.2,9
2013/1/15 2:35,1.1,10,1.2,10,1.1,11
2013/1/15 2:36,1,11,1.1,10,1,12
2013/1/15 2:37,0.9,11,1,10,1,16
2013/1/15 2:38,1,11,1,9,3.8,7
2013/1/15 2:39,1.3,10,1.3,10,5.2,8
2013/1/15 2:40,1.4,9,1.5,9,4.5,7
2013/1/15 2:41,1.5,9,1.5,9,4.4,16
2013/1/15 2:42,1.6,10,1.6,10,6.9,16
2013/1/15 2:43,1.8,12,1.8,12,5.4,15
2013/1/15 2:44,1.9,13,1.9,13,4.5,9
2013/1/15 2:45,2.1,11,2.1,12,3.6,9
2013/1/15 2:46,2.2,7,2.2,11,3.7,10
2013/1/15 2:47,2.3,7,2.3,7,3.3,9
2013/1/15 2:48,2.4,7,2.4,7,4.1,7
2013/1/15 2:49,2.3,8,2.4,7,4.1,9
2013/1/15 2:50,2.1,8,2.2,7,1.9,9
2013/1/15 2:51,2.2,8,2.2,7,3,8
2013/1/15 2:52,2,8,2.1,7,3.9,9
2013/1/15 2:53,1.8,8,2,7,2.6,10
2013/1/15 2:54,1.7,9,1.8,7,3,10
2013/1/15 2:55,1.7,9,1.7,7,3.8,10
2013/1/15 2:56,1.7,9,1.7,7,4.5,9
2013/1/15 2:57,1.8,9,1.8,7,4.9,10
2013/1/15 2:58,1.8,10,1.8,7,3.3,1
2013/1/15 2:59,1.8,10,1.8,8,3.7,3
2013/1/15 3:00,2,9,2,8,3.8,4
2013/1/15 3:01,2.2,7,2.2,8,5.2,6
2013/1/15 3:02,2.2,6,2.2,8,4.1,7
2013/1/15 3:03,2.2,6,2.2,8,2.4,8
2013/1/15 3:04,2.1,6,2.2,8,1.9,8
2013/1/15 3:05,2,5,2.1,8,2,2
2013/1/15 3:06,2,6,2,8,3.1,5
2013/1/15 3:07,2,6,2,8,6.1,7
2013/1/15 3:08,2,6,2,8,4.8,7
2013/1/15 3:09,1.9,7,2,8,3.2,1
2013/1/15 3:10,1.8,8,1.9,8,4.3,15
2013/1/15 3:11,1.7,10,1.8,7,4.1,14
2013/1/15 3:12,1.6,12,1.7,6,1.5,12
2013/1/15 3:13,1.7,13,1.7,6,3.5,13
2013/1/15 3:14,1.8,13,1.8,6,4.1,10
2013/1/15 3:15,1.8,13,1.8,5,3,6
2013/1/15 3:16,1.7,14,1.8,6,2.2,2
2013/1/15 3:17,1.7,14,1.7,6,5,8
2013/1/15 3:18,1.5,14,1.7,6,1.4,15
2013/1/15 3:19,1.5,13,1.5,7,5.1,9
2013/1/15 3:20,1.6,12,1.6,8,6.3,8
2013/1/15 3:21,1.7,11,1.7,13,8.6,8
2013/1/15 3:22,1.8,10,1.8,13,5.2,1
2013/1/15 3:23,1.9,9,1.9,9,6,1
2013/1/15 3:24,2.2,10,2.2,10,6.3,16
2013/1/15 3:25,2.5,14,2.5,13,6.3,16
2013/1/15 3:26,2.8,15,2.8,15,5.6,16
2013/1/15 3:27,2.8,15,2.9,15,4.5,14
2013/1/15 3:28,2.9,15,2.9,15,4.2,9
2013/1/15 3:29,2.9,1,2.9,15,3.1,3
2013/1/15 3:30,2.8,1,2.9,15,3.2,2
2013/1/15 3:31,2.7,1,2.8,15,5.2,2
2013/1/15 3:32,2.7,16,2.8,15,4.3,16
2013/1/15 3:33,2.5,16,2.7,15,2.7,15
2013/1/15 3:34,2.2,16,2.5,15,3.2,15
2013/1/15 3:35,1.9,1,2.2,15,2.2,2
2013/1/15 3:36,1.7,1,1.9,15,3.8,3
2013/1/15 3:37,1.7,1,1.7,15,2,2
2013/1/15 3:38,1.6,1,1.6,15,4.3,16
2013/1/15 3:39,1.9,1,1.9,1,9.1,16
2013/1/15 3:40,2.2,1,2.2,1,9.2,15
2013/1/15 3:41,2.2,1,2.3,1,5.1,16
2013/1/15 3:42,2.2,16,2.2,16,3.3,15
2013/1/15 3:43,2.3,16,2.3,16,5.6,8
2013/1/15 3:44,2.6,16,2.6,16,8.4,9
2013/1/15 3:45,2.7,15,2.7,15,4.5,8
2013/1/15 3:46,2.7,14,2.7,15,4.9,14
2013/1/15 3:47,2.8,14,2.8,14,5.4,15
2013/1/15 3:48,3.1,14,3.1,14,8.3,5
2013/1/15 3:49,3,14,3.1,14,5.4,1
2013/1/15 3:50,2.6,13,2.9,14,2.4,14
2013/1/15 3:51,2.5,12,2.6,14,4.4,3
2013/1/15 3:52,2.5,12,2.6,14,4.5,1
2013/1/15 3:53,2.6,14,2.6,14,5.2,1
2013/1/15 3:54,2.4,16,2.5,14,5.4,16
2013/1/15 3:55,2.5,16,2.5,14,5,16
2013/1/15 3:56,2.5,1,2.6,14,2.5,1
2013/1/15 3:57,2.4,1,2.4,14,3.3,2
2013/1/15 3:58,2.1,16,2.4,14,3.2,16
2013/1/15 3:59,2,16,2.1,14,3.2,13
2013/1/15 4:00,2,16,2,13,3.2,16
2013/1/15 4:01,2,16,2.1,12,4.7,16
2013/1/15 4:02,2,16,2,13,3.5,3
2013/1/15 4:03,1.8,16,2,16,1.5,2
2013/1/15 4:04,1.7,16,1.8,16,3.9,7
2013/1/15 4:05,1.6,16,1.7,16,4.1,9
2013/1/15 4:06,1.6,15,1.6,1,2.6,10
2013/1/15 4:07,1.6,14,1.6,1,3.3,9
2013/1/15 4:08,1.6,12,1.6,16,3.5,10
2013/1/15 4:09,1.5,12,1.6,16,2.4,13
2013/1/15 4:10,1.6,10,1.6,16,3.2,8
2013/1/15 4:11,1.5,10,1.5,16,1.8,14
2013/1/15 4:12,1.6,10,1.6,16,3.7,10
2013/1/15 4:13,1.6,10,1.6,16,3,9
2013/1/15 4:14,1.5,10,1.6,16,1.5,7
2013/1/15 4:15,1.5,11,1.6,16,2,11
2013/1/15 4:16,1.5,11,1.5,15,2.7,14
2013/1/15 4:17,1.4,11,1.5,14,2.6,14
2013/1/15 4:18,1.4,11,1.4,12,2.6,8
2013/1/15 4:19,1.4,11,1.4,11,2.5,8
2013/1/15 4:20,1.3,11,1.4,10,2.1,16
2013/1/15 4:21,1.5,12,1.5,10,3.5,14
2013/1/15 4:22,1.5,12,1.5,10,5.2,4
2013/1/15 4:23,1.6,12,1.6,10,3.3,11
2013/1/15 4:24,1.7,12,1.7,12,5,9
2013/1/15 4:25,2,11,2,11,5.6,9
2013/1/15 4:26,2.2,11,2.2,11,5,10
2013/1/15 4:27,2.2,11,2.2,11,2.7,14
2013/1/15 4:28,2.2,11,2.2,11,2.7,6
2013/1/15 4:29,2.3,12,2.3,12,3.7,15
2013/1/15 4:30,2.3,12,2.3,12,5.5,16
2013/1/15 4:31,2.1,11,2.3,12,2.7,9
2013/1/15 4:32,2,11,2.1,12,2.7,11
2013/1/15 4:33,2,11,2.1,12,3.6,10
2013/1/15 4:34,2,11,2,12,3.6,8
2013/1/15 4:35,1.7,11,1.9,12,4.2,10
2013/1/15 4:36,1.7,11,1.7,12,5.1,14
2013/1/15 4:37,1.8,11,1.8,12,5.5,9
2013/1/15 4:38,1.9,11,1.9,12,3.9,9
2013/1/15 4:39,2,11,2,12,4.3,11
2013/1/15 4:40,2.2,11,2.2,12,6,2
2013/1/15 4:41,2.7,11,2.7,11,8.9,2
2013/1/15 4:42,2.9,12,2.9,12,6.7,15
2013/1/15 4:43,3.1,13,3.1,13,6.5,14
2013/1/15 4:44,3.2,14,3.2,13,3.7,15
2013/1/15 4:45,3.3,14,3.3,14,5.5,1
2013/1/15 4:46,3.2,15,3.3,14,4.9,16
2013/1/15 4:47,3.5,15,3.5,15,12.5,2
2013/1/15 4:48,3.8,16,3.8,16,12.7,2
2013/1/15 4:49,3.8,16,3.8,16,6.1,16
2013/1/15 4:50,3.8,15,3.8,16,6,14
2013/1/15 4:51,3.5,15,3.8,16,5.4,15
2013/1/15 4:52,3.3,15,3.5,16,3.8,12
2013/1/15 4:53,3.1,15,3.3,16,2,1
2013/1/15 4:54,2.9,15,3.1,16,2.6,3
2013/1/15 4:55,2.8,15,2.9,16,3.3,8
2013/1/15 4:56,2.7,14,2.8,16,3.9,9
2013/1/15 4:57,2.5,14,2.6,16,7.8,15
2013/1/15 4:58,2.5,13,2.5,16,7.4,12
2013/1/15 4:59,2.5,13,2.6,16,6.4,16
2013/1/15 5:00,2.5,14,2.6,15,3.9,2
2013/1/15 5:01,2.4,15,2.4,15,4.5,14
2013/1/15 5:02,2.7,16,2.7,15,10.5,15
2013/1/15 5:03,3.1,15,3.1,15,11.7,1
2013/1/15 5:04,3.6,15,3.6,15,14.4,16
2013/1/15 5:05,3.8,15,3.8,15,5,16
2013/1/15 5:06,4.2,16,4.2,16,10.3,1
2013/1/15 5:07,4.4,16,4.4,16,10.1,15
2013/1/15 5:08,4.5,16,4.5,16,9.9,15
2013/1/15 5:09,4.5,16,4.5,16,6.3,16
2013/1/15 5:10,4.3,16,4.5,16,1.9,14
2013/1/15 5:11,4.2,15,4.3,16,1.1,13
2013/1/15 5:12,3.9,15,4.1,16,3.2,12
2013/1/15 5:13,3.4,15,3.9,16,2.7,16
2013/1/15 5:14,3,15,3.3,16,3.8,15
2013/1/15 5:15,2.9,16,3,16,4.4,1
2013/1/15 5:16,2.8,15,2.9,16,7.5,1
2013/1/15 5:17,2.8,16,2.8,16,10.2,16
2013/1/15 5:18,2.6,16,2.8,16,8.2,16
2013/1/15 5:19,2.9,16,2.9,16,11.1,16
2013/1/15 5:20,3.2,16,3.2,16,7.2,15
2013/1/15 5:21,3.5,16,3.5,15,9.2,1
2013/1/15 5:22,3.8,16,3.8,15,8.6,16
2013/1/15 5:23,4,16,4,16,5.7,14
2013/1/15 5:24,3.9,16,4,16,2.6,9
2013/1/15 5:25,4.2,16,4.2,16,10.3,15
2013/1/15 5:26,4.5,16,4.5,16,11.7,13
2013/1/15 5:27,4.5,15,4.5,16,9.4,15
2013/1/15 5:28,4.3,15,4.5,16,5.2,15
2013/1/15 5:29,3.7,15,4.2,16,2,16
2013/1/15 5:30,3.4,15,3.6,16,2.9,16
2013/1/15 5:31,3.5,15,3.5,16,8.4,1
2013/1/15 5:32,3.6,15,3.6,16,9.2,1
2013/1/15 5:33,3.6,16,3.6,16,6.7,16
2013/1/15 5:34,3.8,16,3.8,16,8.5,16
2013/1/15 5:35,4.1,16,4.1,16,9.8,15
2013/1/15 5:36,3.9,16,4.1,16,10,15
2013/1/15 5:37,3.7,16,3.8,15,7.2,15
2013/1/15 5:38,3.8,16,3.8,15,6.4,15
2013/1/15 5:39,4.1,16,4.1,16,6.8,16
2013/1/15 5:40,4.3,16,4.3,16,6,16
2013/1/15 5:41,4.3,15,4.3,16,6.2,11
2013/1/15 5:42,4.2,15,4.2,16,6.5,15
2013/1/15 5:43,4.6,15,4.6,15,13,15
2013/1/15 5:44,5,15,5,15,12.5,15
2013/1/15 5:45,4.9,15,5,15,10.1,16
2013/1/15 5:46,5.1,15,5.1,15,11.8,15
2013/1/15 5:47,5.3,15,5.3,15,8.4,14
2013/1/15 5:48,5.3,15,5.4,15,7.9,16
2013/1/15 5:49,5.1,15,5.2,15,4.4,1
2013/1/15 5:50,5.2,15,5.2,15,6.3,16
2013/1/15 5:51,5.4,16,5.4,15,9.1,16
2013/1/15 5:52,5.4,16,5.4,15,8.4,1
2013/1/15 5:53,5,16,5.4,15,7.4,16
2013/1/15 5:54,4.8,16,5.1,15,10.7,16
2013/1/15 5:55,4.9,16,5,15,11.5,16
2013/1/15 5:56,4.7,16,5,15,9.2,15
2013/1/15 5:57,4.4,16,4.7,15,6.1,16
2013/1/15 5:58,4.4,16,4.4,16,5.8,16
2013/1/15 5:59,4.5,16,4.6,16,6.3,16
2013/1/15 6:00,4.2,16,4.5,16,3.7,16
2013/1/15 6:01,4,16,4.1,16,7.8,13
2013/1/15 6:02,4.2,16,4.2,16,11.4,16
2013/1/15 6:03,4.3,16,4.3,16,8.6,14
2013/1/15 6:04,4.1,15,4.2,16,5.6,12
2013/1/15 6:05,3.6,15,4,16,5.1,9
2013/1/15 6:06,3.4,15,3.6,16,6,10
2013/1/15 6:07,3.4,15,3.5,16,6.3,10
2013/1/15 6:08,3.3,14,3.4,16,4.7,9
2013/1/15 6:09,3.2,14,3.3,16,4.5,1
2013/1/15 6:10,3.3,14,3.3,16,3.7,16
2013/1/15 6:11,3.1,14,3.3,16,3.3,16
2013/1/15 6:12,2.7,15,3.1,16,5,1
2013/1/15 6:13,2.3,15,2.7,16,2.1,4
2013/1/15 6:14,2.2,15,2.3,15,3.9,12
2013/1/15 6:15,2.3,15,2.3,15,3.8,12
2013/1/15 6:16,2.2,15,2.2,15,3.1,16
2013/1/15 6:17,2.3,15,2.3,14,6.9,16
2013/1/15 6:18,2.4,16,2.4,14,4.2,1
2013/1/15 6:19,2.3,15,2.4,14,3.9,15
2013/1/15 6:20,2.2,15,2.3,14,2.6,14
2013/1/15 6:21,2.2,15,2.2,14,2.5,14
2013/1/15 6:22,2.2,14,2.2,15,4.3,14
2013/1/15 6:23,2.3,13,2.3,16,3.8,12
2013/1/15 6:24,2.2,14,2.3,16,3,13
2013/1/15 6:25,2.2,14,2.2,16,5,16
2013/1/15 6:26,2.3,14,2.3,16,4.5,7
2013/1/15 6:27,2.2,13,2.3,16,4.1,8
2013/1/15 6:28,2.1,13,2.1,16,4.2,10
2013/1/15 6:29,2.2,13,2.2,15,5,12
2013/1/15 6:30,2.4,13,2.4,13,5.1,15
2013/1/15 6:31,2.5,13,2.5,13,4.8,16
2013/1/15 6:32,2.3,13,2.4,13,1.9,9
2013/1/15 6:33,2.3,13,2.3,13,3.2,9
2013/1/15 6:34,2.3,12,2.3,13,2,9
2013/1/15 6:35,2.2,12,2.3,13,3.2,3
2013/1/15 6:36,2.4,16,2.4,13,8.4,16
2013/1/15 6:37,2.6,16,2.6,16,9.3,14
2013/1/15 6:38,2.8,16,2.8,16,6.8,15
2013/1/15 6:39,2.6,1,2.8,16,4.1,12
2013/1/15 6:40,2.5,2,2.6,16,3.9,13
2013/1/15 6:41,2.5,2,2.5,16,3.3,3
2013/1/15 6:42,2.6,1,2.6,16,5.2,1
2013/1/15 6:43,2.8,1,2.8,16,5.8,1
2013/1/15 6:44,2.9,1,2.9,1,4.7,16
2013/1/15 6:45,3,16,3,1,4.3,15
2013/1/15 6:46,2.9,16,3,1,5.8,2
2013/1/15 6:47,2.9,16,3,1,6.3,15
2013/1/15 6:48,3,1,3,1,8.9,16
2013/1/15 6:49,3.2,16,3.2,16,5.4,15
2013/1/15 6:50,3.3,16,3.3,16,4.8,1
2013/1/15 6:51,3.4,16,3.4,16,6.8,16
2013/1/15 6:52,3.9,16,3.9,16,13.5,16
2013/1/15 6:53,4.3,16,4.3,16,10.3,14
2013/1/15 6:54,4.5,16,4.5,16,7.2,15
2013/1/15 6:55,4.7,16,4.7,16,7,13
2013/1/15 6:56,4.9,16,4.9,16,10.6,16
2013/1/15 6:57,4.9,16,5,15,8.2,15
2013/1/15 6:58,4.9,15,5,15,9.8,16
2013/1/15 6:59,5.1,15,5.1,15,10.7,16
2013/1/15 7:00,5.5,15,5.5,16,14.7,15
2013/1/15 7:01,5.6,15,5.6,16,7.9,1
2013/1/15 7:02,5.2,15,5.6,16,7,15
2013/1/15 7:03,4.9,15,5.2,16,7.6,1
2013/1/15 7:04,5,16,5,16,8.6,15
2013/1/15 7:05,5,16,5,16,9.1,15
2013/1/15 7:06,5,16,5.1,16,8.4,2
2013/1/15 7:07,4.9,16,5,16,6.8,16
2013/1/15 7:08,4.7,16,4.8,16,5.4,2
2013/1/15 7:09,4.6,16,4.7,16,9.7,16
2013/1/15 7:10,4.5,16,4.7,16,7.6,16
2013/1/15 7:11,4.3,16,4.4,15,5.2,16
2013/1/15 7:12,4.4,16,4.4,15,9.8,16
2013/1/15 7:13,4.6,16,4.6,16,10.1,16
2013/1/15 7:14,4.6,16,4.7,16,8.5,16
2013/1/15 7:15,4.8,16,4.8,16,9.3,16
2013/1/15 7:16,4.8,16,4.8,16,7.4,15
2013/1/15 7:17,4.9,16,4.9,16,7.7,16
2013/1/15 7:18,5.1,16,5.1,16,9.7,16
2013/1/15 7:19,5.4,16,5.4,16,12.4,15
2013/1/15 7:20,5.6,16,5.6,16,10.9,15
2013/1/15 7:21,5.6,16,5.6,16,7.6,15
2013/1/15 7:22,5.7,16,5.8,16,9.5,15
2013/1/15 7:23,5.6,16,5.7,16,10.9,16
2013/1/15 7:24,5.6,16,5.7,16,9.8,15
2013/1/15 7:25,5.6,16,5.6,16,9.9,15
2013/1/15 7:26,5.6,16,5.6,16,8.1,16
2013/1/15 7:27,5.7,16,5.7,16,8.6,15
2013/1/15 7:28,5.8,16,5.8,16,11.1,16
2013/1/15 7:29,5.7,16,5.8,16,10.8,15
2013/1/15 7:30,5.3,16,5.6,16,8.3,16
2013/1/15 7:31,5.9,16,5.9,16,15.6,16
2013/1/15 7:32,5.9,16,6,16,10.2,16
2013/1/15 7:33,6.2,16,6.2,16,14,1
2013/1/15 7:34,6.2,16,6.3,16,13.2,16
2013/1/15 7:35,6.3,16,6.4,16,11.3,16
2013/1/15 7:36,6.7,16,6.7,16,13,16
2013/1/15 7:37,6.4,16,6.7,16,7.4,16
2013/1/15 7:38,6.3,16,6.5,16,7.9,16
2013/1/15 7:39,5.9,16,6.3,16,4.5,3
2013/1/15 7:40,5.8,16,5.9,16,4.7,1
2013/1/15 7:41,5.3,16,5.7,16,8.1,16
2013/1/15 7:42,5.3,16,5.3,16,8.7,1
2013/1/15 7:43,5,16,5.3,16,8.4,1
2013/1/15 7:44,4.9,16,4.9,16,8.4,15
2013/1/15 7:45,4.8,16,4.8,16,9.1,16
2013/1/15 7:46,4.4,16,4.7,16,7.2,1
2013/1/15 7:47,4.4,16,4.4,16,7.5,2
2013/1/15 7:48,4.5,16,4.5,16,11.7,16
2013/1/15 7:49,4.8,16,4.8,16,10.2,1
2013/1/15 7:50,5.1,16,5.1,16,8.2,16
2013/1/15 7:51,5.1,16,5.2,16,7.6,15
2013/1/15 7:52,5,16,5.1,16,7.8,14
2013/1/15 7:53,4.9,16,5,16,8.1,15
2013/1/15 7:54,4.8,16,4.9,16,8.3,15
2013/1/15 7:55,4.6,16,4.8,16,7.6,16
2013/1/15 7:56,4.7,16,4.7,16,8.7,16
2013/1/15 7:57,4.8,16,4.8,16,7.8,14
2013/1/15 7:58,4.6,15,4.9,16,7.4,14
2013/1/15 7:59,4.3,15,4.6,16,5.1,14
2013/1/15 8:00,4,15,4.3,16,4.4,14
2013/1/15 8:01,3.9,15,4,16,6.1,15
2013/1/15 8:02,3.7,15,3.9,16,5.5,1
2013/1/15 8:03,3.6,15,3.7,16,6.4,15
2013/1/15 8:04,3.6,15,3.7,15,6.7,15
2013/1/15 8:05,3.9,15,3.9,15,8.1,14
2013/1/15 8:06,3.6,15,3.8,15,4.7,13
2013/1/15 8:07,3.5,15,3.6,15,5.1,16
2013/1/15 8:08,3.5,15,3.5,15,6,16
2013/1/15 8:09,3.5,15,3.5,15,4.3,1
2013/1/15 8:10,3.5,15,3.6,15,6.8,14
2013/1/15 8:11,3.4,15,3.5,15,3.6,16
2013/1/15 8:12,3.6,15,3.6,15,10.3,1
2013/1/15 8:13,3.5,15,3.6,15,7.7,1
2013/1/15 8:14,3.5,15,3.5,15,7.9,16
2013/1/15 8:15,3.4,16,3.5,15,9,16
2013/1/15 8:16,3.3,16,3.4,15,4.2,15
2013/1/15 8:17,3.2,16,3.3,15,3.7,16
2013/1/15 8:18,3,16,3.2,15,3.1,1
2013/1/15 8:19,3,16,3,15,4.2,5
2013/1/15 8:20,3.2,16,3.2,15,7.5,1
2013/1/15 8:21,3.4,16,3.4,15,6.9,16
2013/1/15 8:22,3.3,16,3.4,15,5.1,14
2013/1/15 8:23,3.1,16,3.3,15,2.7,13
2013/1/15 8:24,2.8,16,3.1,15,2.4,4
2013/1/15 8:25,2.6,16,2.8,16,3.3,2
2013/1/15 8:26,2.5,16,2.6,16,4.5,16
2013/1/15 8:27,2.6,16,2.6,16,7.1,16
2013/1/15 8:28,2.8,16,2.8,16,8.2,1
2013/1/15 8:29,2.9,16,2.9,16,4.1,14
2013/1/15 8:30,2.7,16,2.9,16,3.9,12
2013/1/15 8:31,2.4,16,2.7,16,3.1,1
2013/1/15 8:32,2.3,16,2.4,16,4.3,3
2013/1/15 8:33,2.4,16,2.4,16,6.2,2
2013/1/15 8:34,2.6,16,2.6,16,5.5,2
2013/1/15 8:35,2.6,15,2.6,16,3.2,10
2013/1/15 8:36,2.7,15,2.7,16,4.5,10
2013/1/15 8:37,2.5,14,2.7,16,3,11
2013/1/15 8:38,2.4,15,2.4,16,5.6,16
2013/1/15 8:39,2.3,16,2.4,16,4.1,15
2013/1/15 8:40,2.4,16,2.4,16,5.6,1
2013/1/15 8:41,2.6,16,2.6,15,4.9,16
2013/1/15 8:42,2.7,16,2.7,15,5.1,16
2013/1/15 8:43,2.7,16,2.7,15,4.2,16
2013/1/15 8:44,2.7,16,2.7,15,7.7,1
2013/1/15 8:45,2.9,16,2.9,16,6.5,2
2013/1/15 8:46,3.1,1,3.1,1,7.1,2
2013/1/15 8:47,3.2,1,3.2,1,4.8,16
2013/1/15 8:48,3.1,1,3.2,1,3.5,15
2013/1/15 8:49,3.1,1,3.1,1,5.4,2
2013/1/15 8:50,3.1,1,3.1,1,5.2,15
2013/1/15 8:51,3.2,1,3.2,1,7.8,16
2013/1/15 8:52,3.4,1,3.4,1,6.3,15
2013/1/15 8:53,3.5,1,3.5,1,7.6,1
2013/1/15 8:54,3.7,1,3.7,1,7.8,16
2013/1/15 8:55,3.7,16,3.8,1,6.2,16
2013/1/15 8:56,3.8,16,3.8,1,7.8,16
2013/1/15 8:57,4.1,16,4.1,16,8.3,1
2013/1/15 8:58,4.2,16,4.2,16,4.8,16
2013/1/15 8:59,4.4,16,4.4,16,8.1,16
2013/1/15 9:00,4.2,16,4.3,16,3.5,1
2013/1/15 9:01,4.1,16,4.2,16,6.2,15
2013/1/15 9:02,4,16,4.1,16,4.2,16
2013/1/15 9:03,4,16,4.1,16,5.6,16
2013/1/15 9:04,4,16,4.1,16,7.6,15
2013/1/15 9:05,3.8,16,4,16,7,16
2013/1/15 9:06,3.5,16,3.8,16,4.3,1
2013/1/15 9:07,3.2,16,3.5,16,4.3,16
2013/1/15 9:08,3.3,16,3.3,16,5,15
2013/1/15 9:09,3.1,16,3.3,16,3.7,16
2013/1/15 9:10,3,16,3.1,16,3.8,15
2013/1/15 9:11,3.1,16,3.1,16,6.8,15
2013/1/15 9:12,3.1,16,3.1,16,4.8,16
2013/1/15 9:13,3.1,16,3.1,16,6,16
2013/1/15 9:14,3.2,16,3.2,16,13,15
2013/1/15 9:15,3.3,16,3.3,16,8.3,16
2013/1/15 9:16,3.4,16,3.5,16,6.9,16
2013/1/15 9:17,3.6,16,3.6,16,6.8,15
2013/1/15 9:18,3.5,16,3.6,16,5.1,16
2013/1/15 9:19,3.6,16,3.6,16,5.4,16
2013/1/15 9:20,3.9,16,3.9,16,6.3,15
2013/1/15 9:21,3.9,16,3.9,16,10.3,16
2013/1/15 9:22,4.2,16,4.2,16,8.7,16
2013/1/15 9:23,4.5,16,4.5,16,11.5,15
2013/1/15 9:24,4.4,16,4.6,16,9.9,15
2013/1/15 9:25,4.3,16,4.4,16,5.2,14
2013/1/15 9:26,4.2,16,4.2,16,7,16
2013/1/15 9:27,4.2,16,4.3,16,5.4,15
2013/1/15 9:28,4.4,16,4.4,16,7.8,16
2013/1/15 9:29,4.4,16,4.4,16,6.4,15
2013/1/15 9:30,4.2,16,4.4,16,4.4,15
2013/1/15 9:31,4.2,16,4.3,16,6.7,16
2013/1/15 9:32,4,16,4.2,16,6.4,15
2013/1/15 9:33,3.8,16,4,16,9.3,16
2013/1/15 9:34,4.1,16,4.1,16,10.1,15
2013/1/15 9:35,4.1,16,4.1,16,6.4,16
2013/1/15 9:36,4.1,16,4.2,16,5.6,16
2013/1/15 9:37,4.3,16,4.3,16,9.1,16
2013/1/15 9:38,4.2,16,4.3,16,6,16
2013/1/15 9:39,4.1,16,4.2,16,4.9,16
2013/1/15 9:40,4.4,16,4.4,16,9.2,16
2013/1/15 9:41,4.7,16,4.7,16,11.8,16
2013/1/15 9:42,4.7,16,4.7,16,6,16
2013/1/15 9:43,4.5,16,4.6,16,6.1,1
2013/1/15 9:44,4.2,16,4.5,16,7.4,16
2013/1/15 9:45,4.1,16,4.1,16,5.1,16
2013/1/15 9:46,4.1,16,4.1,16,5.4,1
2013/1/15 9:47,3.9,16,4.1,16,4.4,15
2013/1/15 9:48,3.9,16,3.9,16,6.5,16
2013/1/15 9:49,4,16,4.1,16,4.8,16
2013/1/15 9:50,3.6,16,4,16,3,15
2013/1/15 9:51,3.2,16,3.6,16,7,15
2013/1/15 9:52,3.3,16,3.3,16,6.7,1
2013/1/15 9:53,3.4,16,3.5,16,8.7,1
2013/1/15 9:54,3.7,16,3.7,16,11.9,1
2013/1/15 9:55,3.8,16,3.8,16,8.7,1
2013/1/15 9:56,3.6,16,3.8,16,4.8,1
2013/1/15 9:57,3.6,16,3.6,16,4.2,11
2013/1/15 9:58,3.4,16,3.6,16,5,14
2013/1/15 9:59,3.4,15,3.5,16,5,14
2013/1/15 10:00,3.5,15,3.6,16,6.8,2
2013/1/15 10:01,3.7,15,3.7,16,6.4,16
2013/1/15 10:02,3.6,15,3.7,16,7,16
2013/1/15 10:03,3.6,15,3.6,16,7,15
2013/1/15 10:04,3.3,15,3.6,16,5.7,15
2013/1/15 10:05,3.3,15,3.3,16,5.8,15
2013/1/15 10:06,3.3,15,3.3,15,5.2,15
2013/1/15 10:07,3.3,15,3.3,15,4.2,14
2013/1/15 10:08,3.4,16,3.4,15,4.1,16
2013/1/15 10:09,3.5,16,3.5,15,5.2,16
2013/1/15 10:10,3.3,16,3.5,15,4.4,16
2013/1/15 10:11,3.2,16,3.3,15,4.5,13
2013/1/15 10:12,3.1,16,3.2,15,5.2,4
2013/1/15 10:13,2.9,16,3,15,6.7,1
2013/1/15 10:14,2.7,16,2.9,16,3.5,15
2013/1/15 10:15,2.7,16,2.7,16,5.8,1
2013/1/15 10:16,2.8,1,2.8,16,6,1
2013/1/15 10:17,3,1,3,16,8.3,15
2013/1/15 10:18,3.4,1,3.4,16,8.5,16
2013/1/15 10:19,3.6,1,3.6,1,7.8,1
2013/1/15 10:20,4.1,1,4.1,1,8.9,1
2013/1/15 10:21,4.2,1,4.2,1,6.3,16
2013/1/15 10:22,4.4,1,4.4,1,10.5,1
2013/1/15 10:23,4.5,16,4.5,1,8.3,16
2013/1/15 10:24,4.4,16,4.5,1,4.4,16
2013/1/15 10:25,4.3,16,4.4,1,5.4,15
2013/1/15 10:26,4.4,16,4.4,1,7.6,1
2013/1/15 10:27,4.2,16,4.3,1,7.2,16
2013/1/15 10:28,3.8,1,4.1,1,6.8,16
2013/1/15 10:29,3.7,1,3.8,1,5.2,16
2013/1/15 10:30,3.4,16,3.6,1,5.8,14
2013/1/15 10:31,3.5,1,3.5,1,7.2,2
2013/1/15 10:32,3.3,1,3.5,1,6.9,16
2013/1/15 10:33,3.5,1,3.5,16,9.8,15
2013/1/15 10:34,3.8,1,3.8,16,7.1,16
2013/1/15 10:35,4.1,1,4.1,16,8.5,16
2013/1/15 10:36,4.2,1,4.2,16,8.9,16
2013/1/15 10:37,4.7,16,4.7,16,10.3,15
2013/1/15 10:38,4.9,16,4.9,16,10.1,16
2013/1/15 10:39,5.2,16,5.2,16,8.3,16
2013/1/15 10:40,5.5,16,5.5,16,11,15
2013/1/15 10:41,5.7,16,5.7,16,10.2,15
2013/1/15 10:42,5.8,16,5.8,16,7.7,15
2013/1/15 10:43,5.6,16,5.8,16,7.2,16
2013/1/15 10:44,5.5,16,5.6,16,6.4,16
2013/1/15 10:45,5.7,16,5.7,16,10.1,16
2013/1/15 10:46,5.6,16,5.7,16,7.5,16
2013/1/15 10:47,5.1,16,5.5,16,5.1,14
2013/1/15 10:48,4.8,16,5.1,16,4.7,1
2013/1/15 10:49,4.4,16,4.7,16,5.2,16
2013/1/15 10:50,4.5,16,4.5,16,9.8,1
2013/1/15 10:51,4.2,16,4.4,16,6.5,15
2013/1/15 10:52,4.1,16,4.2,16,6.8,15
2013/1/15 10:53,4.2,16,4.2,16,8.3,15
2013/1/15 10:54,4.2,16,4.2,16,7,16
2013/1/15 10:55,3.9,16,4.2,16,6.4,15
2013/1/15 10:56,3.9,16,3.9,16,7.6,16
2013/1/15 10:57,4.1,16,4.1,16,8.2,16
2013/1/15 10:58,4.2,15,4.2,16,6.1,15
2013/1/15 10:59,4.2,15,4.3,16,5,16
2013/1/15 11:00,4,15,4.2,16,6.7,15
2013/1/15 11:01,4,16,4,15,6.7,15